Paynesville, MN

10:02 PM CDT on August 23, 2016 (GMT -0500)
Paynesville

Weather History for KPEX - June, 2013

Change the Weather History Date:

Wednesday, June 5, 2013

  Actual Average (KLJF) Record (KLJF)
Temperature  
Mean Temperature 58 °F -  
Max Temperature 63 °F 78 °F 95 °F (1968)
Min Temperature 52 °F 53 °F 38 °F (1985)
Degree Days  
Heating Degree Days 8    
Growing Degree Days 8 (Base 50)    
Moisture  
Dew Point 53 °F    
Average Humidity 88    
Maximum Humidity 99    
Minimum Humidity 67    
Precipitation  
Precipitation 0.05 in - - ()
Sea Level Pressure  
Sea Level Pressure 29.99 in    
Wind  
Wind Speed 8 mph (ENE)    
Max Wind Speed 13 mph    
Max Gust Speed -    
Visibility 7 miles    
Events Fog , Rain , Thunderstorm    
Averages and records for this station are not official NWS values.
T = Trace of Precipitation, MM = Missing Value Source: NWS Daily Summary

Daily Weather History Graph

Daily Weather History Graph

Search for Another Location

Airport or City:

Trip Planner

Search our weather history database for the weather conditions in past years. The results will help you decide how hot, cold, wet, or windy it might be!

Date:

Astronomy

Jun. 05, 2013 Rise Set
Actual Time 5:32 AM CDT 9:03 PM CDT
Civil Twilight 4:54 AM CDT 9:40 PM CDT
Nautical Twilight 4:05 AM CDT 10:29 PM CDT
Astronomical Twilight 3:02 AM CDT 11:34 PM CDT
Moon 3:44 AM CDT (6/5) 6:24 PM CDT (6/5)
Length of Visible Light 16h 45m
Length of Day
15h 31m
Waning Crescent, 8% of the Moon is Illuminated
Jun 5
Waning Crescent
Jun 8
New
Jun 16
First Quarter
Jun 23
Full
Jun 29
Last Quarter

Hourly Weather History & Observations

Time (CDT) Temp. Dew Point Humidity Pressure Visibility Wind Dir Wind Speed Gust Speed Precip Events Conditions
12:13 AM 54.1 °F 51.4 °F 91% 30.02 in 7.0 mi SE 9.2 mph - N/A Thunderstorm Overcast
12:32 AM 53.8 °F 51.4 °F 92% 30.02 in 7.0 mi SSE 10.4 mph - N/A   Overcast
12:53 AM 53.6 °F 51.8 °F 94% 30.02 in 5.0 mi SE 9.2 mph - N/A   Overcast
1:13 AM 53.2 °F 51.8 °F 95% 30.02 in 3.0 mi SSE 10.4 mph - N/A   Overcast
1:32 AM 53.1 °F 51.8 °F 95% 30.02 in 2.5 mi SE 9.2 mph - N/A Rain Light Rain
1:53 AM 52.7 °F 51.8 °F 97% 30.02 in 2.0 mi SE 9.2 mph - N/A Rain , Thunderstorm Light Thunderstorms and Rain
2:13 AM 52.7 °F 51.8 °F 97% 30.01 in 2.5 mi SSE 9.2 mph - N/A   Overcast
2:32 AM 52.7 °F 51.8 °F 97% 30.00 in 2.5 mi SE 10.4 mph - N/A   Overcast
2:53 AM 52.7 °F 52.0 °F 97% 30.00 in 2.5 mi SE 8.1 mph - N/A   Overcast
3:13 AM 52.7 °F 52.0 °F 97% 30.00 in 2.5 mi SSE 6.9 mph - N/A   Overcast
3:33 AM 52.7 °F 52.0 °F 97% 29.99 in 2.0 mi SSE 9.2 mph - N/A   Overcast
3:53 AM 52.9 °F 52.2 °F 97% 29.99 in 1.8 mi SE 8.1 mph - N/A   Overcast
4:13 AM 52.9 °F 52.3 °F 98% 29.99 in 1.2 mi SSE 8.1 mph - N/A Thunderstorm Overcast
4:33 AM 52.9 °F 52.5 °F 99% 29.98 in 1.0 mi SE 8.1 mph - N/A   Overcast
4:53 AM 53.1 °F 52.5 °F 98% 29.97 in 0.8 mi SE 9.2 mph - N/A   Overcast
5:13 AM 53.1 °F 52.7 °F 99% 29.97 in 0.8 mi SSE 10.4 mph - N/A   Overcast
5:33 AM 53.1 °F 52.7 °F 99% 29.98 in 0.5 mi SSE 9.2 mph - N/A Fog Fog
5:53 AM 53.1 °F 52.7 °F 99% 29.99 in 0.5 mi SSE 10.4 mph - N/A Fog Fog
6:12 AM 52.9 °F 52.7 °F 99% 29.99 in 0.2 mi SE 8.1 mph - N/A Rain Light Rain
6:33 AM 53.1 °F 52.7 °F 99% 29.99 in 0.2 mi SE 4.6 mph - N/A Rain Light Rain
6:53 AM 53.6 °F 53.1 °F 98% 29.98 in 0.5 mi SE 8.1 mph - N/A Fog Fog
7:13 AM 54.0 °F 53.6 °F 99% 29.98 in 0.5 mi SSE 9.2 mph - N/A Fog Fog
7:33 AM 54.1 °F 54.0 °F 99% 29.99 in 0.8 mi South 5.8 mph - N/A   Overcast
7:53 AM 54.3 °F 54.0 °F 99% 29.98 in 1.0 mi SSE 5.8 mph - N/A   Overcast
8:13 AM 54.9 °F 54.7 °F 99% 29.98 in 1.5 mi SE 3.5 mph - N/A   Overcast
8:33 AM 54.7 °F 54.5 °F 99% 29.97 in 4.0 mi Calm Calm - N/A   Overcast
8:53 AM 55.9 °F 55.6 °F 99% 29.98 in 4.0 mi ESE 5.8 mph - N/A   Overcast
9:13 AM 57.4 °F 55.0 °F 92% 29.98 in 7.0 mi Calm Calm - N/A   Mostly Cloudy
9:33 AM 57.2 °F 54.3 °F 90% 29.98 in 7.0 mi ESE 4.6 mph - N/A   Overcast
9:53 AM 57.2 °F 54.1 °F 89% 29.97 in 10.0 mi Calm Calm - N/A   Overcast
10:12 AM 57.2 °F 52.9 °F 85% 29.97 in 10.0 mi Calm Calm - N/A   Overcast
10:33 AM 57.2 °F 52.3 °F 84% 29.97 in 10.0 mi West 4.6 mph - N/A   Overcast
10:53 AM 56.8 °F 52.7 °F 86% 29.98 in 10.0 mi West 3.5 mph - N/A   Overcast
11:13 AM 56.8 °F 53.1 °F 87% 29.98 in 10.0 mi Calm Calm - N/A Rain Rain
11:33 AM 56.3 °F 52.7 °F 88% 29.98 in 10.0 mi WNW 5.8 mph - N/A Rain Light Rain
11:53 AM 55.9 °F 52.5 °F 88% 29.99 in 10.0 mi NW 6.9 mph - N/A   Overcast
12:13 PM 55.4 °F 52.7 °F 91% 29.99 in 10.0 mi NNW 3.5 mph - N/A   Overcast
12:32 PM 55.4 °F 52.9 °F 91% 29.99 in 10.0 mi North 3.5 mph - N/A Rain Light Rain
12:53 PM 55.0 °F 52.7 °F 92% 29.99 in 10.0 mi North 3.5 mph - N/A   Overcast
1:13 PM 55.8 °F 52.9 °F 90% 29.99 in 10.0 mi NNE 3.5 mph - N/A   Overcast
1:33 PM 57.2 °F 52.5 °F 84% 29.99 in 10.0 mi North 3.5 mph - N/A   Overcast
1:53 PM 58.8 °F 51.6 °F 77% 29.99 in 10.0 mi North 3.5 mph - N/A   Overcast
2:13 PM 59.5 °F 51.6 °F 75% 29.98 in 10.0 mi NE 4.6 mph - N/A   Overcast
2:33 PM 60.6 °F 52.5 °F 75% 29.98 in 10.0 mi North 4.6 mph - N/A   Overcast
2:53 PM 60.8 °F 51.4 °F 71% 29.97 in 10.0 mi NNW 4.6 mph - N/A   Overcast
3:13 PM 61.0 °F 51.4 °F 71% 29.97 in 10.0 mi North 4.6 mph - N/A   Overcast
3:33 PM 62.4 °F 53.1 °F 71% 29.97 in 10.0 mi NNE 6.9 mph - N/A   Mostly Cloudy
3:52 PM 61.3 °F 52.7 °F 73% 29.97 in 10.0 mi NNE 8.1 mph - N/A   Mostly Cloudy
4:13 PM 63.1 °F 52.2 °F 67% 29.97 in 10.0 mi North 9.2 mph - N/A   Overcast
4:33 PM 63.1 °F 52.0 °F 67% 29.96 in 10.0 mi NNE 6.9 mph - N/A   Mostly Cloudy
4:53 PM 63.5 °F 53.1 °F 69% 29.96 in 10.0 mi NNE 12.7 mph - N/A   Scattered Clouds
5:13 PM 62.8 °F 52.7 °F 70% 29.96 in 10.0 mi NNE 6.9 mph - N/A   Scattered Clouds
5:33 PM 61.3 °F 52.2 °F 72% 29.97 in 10.0 mi NNE 8.1 mph - N/A   Mostly Cloudy
5:53 PM 60.1 °F 52.9 °F 77% 29.97 in 10.0 mi NNE 9.2 mph - N/A   Overcast
6:12 PM 60.6 °F 52.2 °F 74% 29.97 in 10.0 mi North 9.2 mph - N/A   Mostly Cloudy
6:33 PM 59.7 °F 52.5 °F 77% 29.97 in 10.0 mi NNE 8.1 mph - N/A   Mostly Cloudy
6:53 PM 59.5 °F 52.5 °F 78% 29.97 in 10.0 mi NE 9.2 mph - N/A   Mostly Cloudy
7:12 PM 58.5 °F 52.3 °F 80% 29.97 in 10.0 mi NE 9.2 mph - N/A   Mostly Cloudy
7:33 PM 58.3 °F 52.7 °F 82% 29.98 in 10.0 mi NNE 5.8 mph - N/A   Overcast
7:53 PM 57.6 °F 52.5 °F 83% 29.99 in 10.0 mi North 6.9 mph - N/A   Overcast
8:12 PM 56.8 °F 52.5 °F 85% 29.99 in 10.0 mi NNE 8.1 mph - N/A   Overcast
8:33 PM 56.5 °F 52.7 °F 87% 30.00 in 10.0 mi NNE 9.2 mph - N/A   Overcast
8:53 PM 55.8 °F 52.0 °F 87% 30.00 in 10.0 mi NNE 10.4 mph - N/A   Overcast
9:13 PM 55.2 °F 52.2 °F 89% 30.01 in 10.0 mi NNE 6.9 mph - N/A   Overcast
9:32 PM 54.7 °F 51.8 °F 90% 30.01 in 10.0 mi NNE 5.8 mph - N/A   Overcast
9:53 PM 54.5 °F 51.8 °F 91% 30.02 in 10.0 mi NNE 9.2 mph - N/A   Overcast
10:13 PM 54.0 °F 52.0 °F 93% 30.02 in 10.0 mi NNE 8.1 mph - N/A   Overcast
10:33 PM 54.0 °F 52.0 °F 93% 30.02 in 10.0 mi NNE 6.9 mph - N/A   Overcast
10:53 PM 53.6 °F 51.8 °F 94% 30.02 in 10.0 mi NNE 4.6 mph - N/A   Overcast
11:12 PM 53.6 °F 51.3 °F 92% 30.02 in 10.0 mi NNE 9.2 mph - N/A   Overcast
11:33 PM 53.6 °F 50.9 °F 91% 30.02 in 10.0 mi NNE 4.6 mph - N/A   Overcast
11:53 PM 52.7 °F 50.5 °F 92% 30.01 in 10.0 mi NNE 10.4 mph - N/A   Overcast